Regional Weather Roundup
Issued by NWS Sterling, VA

Home | Current Version | Previous Version | Text Only | Print | Product List | Glossary On
Versions: 1 2 3 4 5 6 7 8 9 10 11 12 13 14 15 16 17 18 19 20 21 22 23 24 25 26 27 28 29 30 31 32 33 34 35 36 37 38 39 40 41 42 43 44 45 46 47 48 49 50
000
ASUS41 KLWX 041510
RWRLWX

REGIONAL WEATHER ROUNDUP
NATIONAL WEATHER SERVICE BALTIMORE MD/WASHINGTON DC
1100 AM EDT FRI SEP 04 2015

Note: "FAIR" indicates few or no clouds below 12,000 feet
with no significant weather and/or obstructions to visibility.
 TC=TEMPERATURE CELSIUS

 * =Non NWS site. Station does not report precipitation (e.g. rain,
    snow, etc.), thunder, or fog.

DCZ001-MDZ009-015-VAZ040>042-051-053>054-041600-
WASHINGTON METRO

CITY           SKY/WX    TMP DP  RH WIND       PRES   REMARKS
WASHINGTON NAT PTSUNNY   86  70  58 NE5       30.02R HX  90
DULLES         SUNNY     85  69  58 VRB5      30.03R
ANDREWS AFB    SUNNY     84  71  64 NE6       30.02R
FT BELVOIR     SUNNY     87  70  56 VRB3      30.01R HX  91
QUANTICO       PTSUNNY   85  70  60 E9        30.02R
COLLEGE PARK*  SUNNY     84  68  58 NE5       30.01R
LEESBURG*      SUNNY     86  72  62 N9        30.05R HX  92
MANASSAS*      SUNNY     84  70  61 N8        30.03R
GAITHERSBURG*  SUNNY     84  70  61 E3        30.07R

$$

MDZ006>007-011-014-041600-
BALTIMORE METRO

CITY           SKY/WX    TMP DP  RH WIND       PRES   REMARKS
BWI AIRPORT    MOSUNNY   84  68  58 VRB3      30.02R
MD SCIENCE CTR   N/A     86  68  54 MISG      30.02R
MARTIN STATE   PTSUNNY   84  73  70 NE3       30.04R HX  91
ANNAPOLIS      MOSUNNY   82  72  71 NE6       30.02R HAZE
FORT MEADE*    SUNNY     84  68  58 E6        30.04R

$$

MDZ012-015-019>023-041600-
MARYLAND EASTERN SHORE

CITY           SKY/WX    TMP DP  RH WIND       PRES   REMARKS
OCEAN CITY     SUNNY     82  73  74 E10       30.01R
SALISBURY      SUNNY     86  70  58 E8        30.01R HX  90
BAY BRIDGE AP*   N/A     82  72  69 NE3       30.02R
CAMBRIDGE*     SUNNY     86  64  48 E5        30.00R
EASTON*        PTSUNNY   86  68  54 E6        30.05R

$$

MDZ017>025-041600-
SOUTHERN MARYLAND

CITY           SKY/WX    TMP DP  RH WIND       PRES   REMARKS
PATUXENT RIVER PTSUNNY   85  74  69 VRB6      30.00R HAZE    HX  92
ST INIGOES     SUNNY     86  73  65 NE7       30.00R HX  93
LEONARDTOWN*   NOT AVBL

$$

MDZ003>005-041600-
NORTH CENTRAL MARYLAND

CITY           SKY/WX    TMP DP  RH WIND       PRES   REMARKS
FREDERICK*     SUNNY     84  72  65 NE8       30.06R
HAGERSTOWN APT SUNNY     84  69  60 CALM      30.06R
WESTMINSTER*   SUNNY     82  72  69 NW3       30.05S

$$

MDZ501>502-041600-
WESTERN MARYLAND

CITY           SKY/WX    TMP DP  RH WIND       PRES   REMARKS
OAKLAND*       SUNNY     70  64  83 NW3       30.19R
CUMBERLAND*    SUNNY     79  70  73 CALM      30.12R

$$

VAZ025>031-041600-
SHENANDOAH VALLEY

CITY           SKY/WX    TMP DP  RH WIND       PRES   REMARKS
WINCHESTER*    SUNNY     84  68  58 NE6       30.07R
FRONT ROYAL*   FAIR      81  70  69 CALM      30.07R
LURAY*         FAIR      81  68  65 E3        30.07S
NEW MARKET*    FAIR      80  71  73 NE3       30.06S
STAUNTON*      SUNNY     82  69  65 CALM      30.11R
WAYNESBORO*    FAIR      81  68  65 N5        30.10S

$$

WVZ021-048>050-054>055-041600-
EASTERN WEST VIRGINIA PANHANDLE

CITY           SKY/WX    TMP DP  RH WIND       PRES   REMARKS
MARTINSBURG    SUNNY     84  67  56 N5        30.06R
PETERSBURG*    SUNNY     80  67  66 CALM      30.10R

$$

VAZ036>039-050-041600-
CENTRAL FOOTHILLS

CITY           SKY/WX    TMP DP  RH WIND       PRES   REMARKS
CHARLOTTESVILL SUNNY     85  70  60 E7        30.04R
CULPEPER*      SUNNY     83  71  65 N8        30.04R
ORANGE*        SUNNY     86  70  58 NW5       30.04R HX  90
GORDONSVILLE*  PTSUNNY   86  71  60 NE6       30.03R HX  91
WARRENTON*     FAIR      88  72  58 N7        30.03R HX  94

$$

VAZ055>057-041600-
NORTH AND CENTRAL PIEDMONT

CITY           SKY/WX    TMP DP  RH WIND       PRES   REMARKS
FREDERICKSBRG* SUNNY     84  70  61 NE7       30.01R
STAFFORD*      SUNNY     86  68  55 NE7       30.06R

$$

NCZ024-NYZ072-PAZ021-071-VAZ022-071-041600-
OTHER REGIONAL OBSERVATIONS

CITY           SKY/WX    TMP DP  RH WIND       PRES   REMARKS
NEW YORK CITY  PTSUNNY   79  67  66 E10G22    30.10R
PHILADELPHIA   MOSUNNY   87  68  52 E9        30.03R HX  90
PITTSBURGH     PTSUNNY   78  61  55 NW13      30.11S
ROANOKE        SUNNY     84  67  56 NE8       30.09R
RICHMOND       PTSUNNY   88  71  57 VRB3      30.00R HX  94
RALEIGH        MOSUNNY   84  71  65 CALM      30.02R

$$

ANZ530>537-041600-
MARINE OBSERVATIONS

STATION/POSITION TIME  TEMP    WIND        PRES
                       AIR SEA DIR/SP/G
                 (UTC) (F)     (DEG/KT/KT) (MB)
THOMAS PT LIGHT  NOT AVBL
BALT KEY BRIDGE  1400   80      40/  7/ 10 1016.0R
COVE POINT       1400   79      30/  6/  7 1016.3R
LEWISETTA        1400   82 82   80/  1/  3 1014.9R
SOLOMONS ISLAND  1400      81                N/A
PINEY POINT      1405          280/  2/  2   N/A

$$




USA.gov is the U.S. government's official web portal to all federal, state and local government web resources and services.